Home > Time Zones > World Clock > Weather > Spain > Lugo > Past weeks

Flag for Spain Weather past 2 weeks in Lugo, Galicia, Spain

Now
70 °F

Broken clouds.


Feels Like: 70 °F
Forecast: 57 / 74 °F
Wind: 17 mph from Southwest

Location: Santiago / Labacolla

Current Time: Aug 27, 2014 at 1:55:37 PM

Latest Report: Aug 27, 2014 at 1:30 PM


Visibility: N/A

Pressure: 30.07 "Hg

Humidity: 73%

Dew point: 61 °F

Location of LugoLocation

Historic Weather in Lugo — Graph

°F

Lugo temperature yesterday

Maximum temperature yesterday: 68 °F (at 1:30 PM)
Minimum temperature yesterday: 63 °F (at 2:30 AM)
Average temperature yesterday: 65 °F

Past Weeks' High & Low Weather Summary

 TemperatureHumidityPressure
High84 °F (Aug 17, 6:00 PM)100% (Aug 12, 1:30 PM)30.27 "Hg (Aug 12, 1:30 PM)
Low46 °F (Aug 24, 7:00 AM)37% (Aug 17, 6:00 PM)29.92 "Hg (Aug 18, 4:00 AM)
Average62 °F81%30.10 "Hg
* Reported Aug 12 12:00 Noon — Aug 27 12:00 Noon, Lugo, Weather by CustomWeather, © 2014

Note: Actual official high and low records may vary slightly from our data, if they occured in-between our weather recording intervals... More about our weather records

Advertising

Lugo weather history for previous 24 hours

 ConditionsComfort  
Time TempWeatherWind HumidityBarometerVisibility
12:00 PM
Aug 27
70 °FBroken clouds.13 mph78%30.07 "HgN/A
11:30 AM68 °FBroken clouds.9 mph83%30.07 "HgN/A
11:00 AM68 °FBroken clouds.7 mph88%30.07 "HgN/A
10:30 AM66 °FBroken clouds.6 mph88%30.07 "HgN/A
10:00 AM64 °FBroken clouds.6 mph94%30.07 "HgN/A
9:30 AM64 °FPartly sunny.1 mph94%30.07 "HgN/A
9:00 AM64 °FPartly sunny.5 mph94%30.04 "Hg6 mi
8:30 AM64 °FPassing clouds.5 mph94%30.04 "Hg5 mi
8:00 AM64 °FPassing clouds.7 mph94%30.04 "Hg4 mi
7:30 AM64 °FPartly cloudy.9 mph100%30.04 "Hg4 mi
7:00 AM64 °FPartly cloudy.9 mph100%30.04 "Hg4 mi
6:30 AM64 °FPartly cloudy.9 mph100%30.04 "Hg4 mi
6:00 AM64 °FPartly cloudy.8 mph100%30.04 "Hg4 mi
5:30 AM64 °FPassing clouds.7 mph100%30.04 "Hg4 mi
5:00 AM64 °FPassing clouds.8 mph100%30.04 "Hg1 mi
4:30 AM66 °FFog.6 mph100%30.04 "Hg0 mi
4:00 AM66 °FFog.7 mph100%30.07 "Hg0 mi
3:30 AM66 °FPassing clouds.8 mph100%30.07 "Hg1 mi
3:00 AM66 °FFog.5 mph100%30.07 "Hg0 mi
2:30 AM66 °FFog.7 mph100%30.07 "Hg0 mi
2:00 AM66 °FDrizzle. Dense fog.6 mph100%30.07 "Hg1 mi
1:30 AM66 °FDrizzle. Dense fog.7 mph100%30.07 "Hg1 mi
1:00 AM66 °FDrizzle. Dense fog.7 mph100%30.07 "Hg1 mi
12:30 AM66 °FPassing clouds.5 mph100%30.09 "Hg1 mi
12:00 AM66 °FDrizzle. Dense fog.3 mph100%30.09 "Hg1 mi
11:30 PM
Aug 26
66 °FDrizzle. Dense fog.3 mph100%30.07 "Hg0 mi
11:00 PM66 °FDrizzle. Dense fog.6 mph100%30.07 "Hg0 mi
10:30 PM66 °FDrizzle. Dense fog.3 mph100%30.07 "Hg0 mi
10:00 PM66 °FDrizzle. Dense fog.5 mph100%30.07 "Hg1 mi
9:30 PM66 °FDrizzle. Dense fog.6 mph100%30.07 "Hg1 mi
9:00 PM66 °FDrizzle. Dense fog.6 mph100%30.07 "Hg0 mi
8:30 PM66 °FDrizzle. Dense fog.3 mph100%30.04 "Hg0 mi
8:00 PM66 °FDrizzle. Dense fog.5 mph100%30.04 "Hg0 mi
7:30 PM66 °FDrizzle. Dense fog.7 mph100%30.04 "Hg0 mi
7:00 PM66 °FDrizzle. Dense fog.7 mph100%30.04 "Hg0 mi
6:30 PM66 °FDrizzle. Dense fog.8 mph100%30.04 "Hg1 mi
6:00 PM66 °FMixture of precip. Mostly cloudy.8 mph100%30.04 "Hg1 mi
5:30 PM66 °FMixture of precip. Partly sunny.8 mph100%30.04 "Hg3 mi
5:00 PM66 °FMixture of precip. Mostly cloudy.10 mph100%30.04 "Hg1 mi
4:30 PM68 °FMixture of precip. Mostly cloudy.10 mph94%30.04 "Hg1 mi
4:00 PM68 °FMixture of precip. Mostly cloudy.10 mph94%30.04 "Hg3 mi
3:30 PM68 °FMixture of precip. Mostly cloudy.13 mph94%30.04 "Hg2 mi
3:00 PM68 °FMixture of precip. Mostly cloudy.13 mph100%30.04 "Hg3 mi
2:30 PM68 °FSnow. Cloudy.12 mph94%30.04 "Hg1 mi
1:30 PM68 °FMixture of precip. Mostly cloudy.15 mph94%30.04 "Hg2 mi
1:00 PM66 °FMixture of precip. Mostly cloudy.12 mph100%30.04 "Hg2 mi
Weather by CustomWeather, © 2014

See weather overviewHow to use our weather pages